Regional Weather Roundup
Issued by NWS Wakefield, VA

Home | Current Version | Previous Version | Graphics & Text | Print | Product List | Glossary On
Versions: 1 2 3 4 5 6 7 8 9 10 11 12 13 14 15 16 17 18 19 20 21 22 23 24 25 26 27 28 29 30 31 32 33 34 35 36 37 38 39 40 41 42 43 44 45 46 47 48 49 50
000
ASUS41 KAKQ 041915
RWRAKQ

REGIONAL WEATHER ROUNDUP
NATIONAL WEATHER SERVICE WAKEFIELD VA
300 PM EDT FRI SEP 04 2015

Note: "fair" indicates few or no clouds below 12,000 feet with no
significant weather and/or obstructions to visibility. * = Denotes
station may not report precipitation (e.g., rain,snow,etc.),
thunder or fog.

VAZ042-051-052>054-056-042000-
NORTHERN VIRGINIA

CITY           SKY/WX    TMP DP  RH WIND       PRES   REMARKS
WASH NATIONAL  PTSUNNY   89  68  49 SE10      30.01S
DULLES         PTSUNNY   80  65  59 NW6       30.01F THUNDER
FORT BELVOIR   PTSUNNY   86  69  56 SE3       30.01R
QUANTICO       LGT RAIN  76  70  82 S16G26    30.02S
FREDERICKSBRG* MOSUNNY   88  65  47 NE17G28   30.00R
STAFFORD*      MOSUNNY   83  67  57 E10       30.06R
WARRENTON      CLOUDY    90  71  53 NE5       30.01R HX  96
CULPEPER*      PTSUNNY   89  69  51 CALM      30.01S
MANASSAS*      NOT AVBL
LEESBURG*      MOSUNNY   77  73  88 NW8       30.03F
WINCHESTER     MOSUNNY   91  63  38 E7        30.03F
FRONT ROYAL*   FAIR      90  68  48 E3        30.03S
LURAY*         FAIR      81  66  61 NW3       30.05F
$$

VAZ048-049-060>072-079>083-042000-
CENTRAL AND SOUTH CENTRAL VIRGINIA

CITY           SKY/WX    TMP DP  RH WIND       PRES   REMARKS
RICHMOND       PTSUNNY   89  69  51 E14       29.99S
CHESTERFIELD*  FAIR      90  63  40 NE8       30.00S
PETERSBURG*    PTSUNNY   92  74  54 E9        29.99R HX 101
HANOVER        PTSUNNY   83  73  72 VRB3      30.01F
TAPPAHANNOCK*  PTSUNNY   89  64  42 E9        30.01S
QUINTON*       FAIR      81  67  61 CALM      30.00R
CHARLOTTSVILLE PTSUNNY   88  68  51 N3        30.02F
GORDONSVILLE*  FAIR      88  70  55 CALM      30.00F
ORANGE*        PTSUNNY   90  66  45 N8        30.02S
LOUISA*        PTSUNNY   90  68  48 E6        29.99F
BUMPASS*       FAIR      90  69  49 E6        29.99F HX  95
FARMVILLE*     CLOUDY    86  67  52 NE7G18    29.99R THUNDER
CREWE*         FAIR     N/A N/A N/A SW5       29.99S
FORT PICKETT*  FAIR      77  69  75 W9        30.00R
CHASE CITY*    FAIR      83  74  76 CALM      30.01S
CLARKSVILLE*   MOCLDY    79  72  78 CALM      29.99F
SOUTH HILL*    PTSUNNY   86  74  67 CALM      30.04F
LAWRENCEVILLE* FAIR      84  75  74 CALM      29.98S
EMPORIA*       PTSUNNY   77  68  73 CALM      29.99F
$$

VAZ088>098-042000-
SOUTHEAST VIRGINIA

CITY           SKY/WX    TMP DP  RH WIND       PRES   REMARKS
NORFOLK        SUNNY     84  71  65 NE14      29.98F
VIRGINIA BEACH PTSUNNY   88  73  61 NE16      29.98F HX  95
NORFOLK NAVAL  MOSUNNY   85  70  60 E15       30.00F
WEST POINT*    PTSUNNY   89  66  46 E9        29.99F
SALUDA*        FAIR      87  69  55 E10       29.99F
NEWPORT NEWS   MOSUNNY   87  65  47 E15       29.99F
LANGLEY AFB    MOSUNNY   87  69  53 E14       29.98F
FORT EUSTIS    MOSUNNY   88  66  47 E13       29.97F
WILLIAMSBURG*  PTSUNNY   95  70  43 E6G17     30.00S HX 101
HR EXEC AP*      N/A     90  66  45 NE10      29.99F
FRANKLIN*      PTSUNNY   87  67  50 NE9       29.97F
WAKEFIELD      PTSUNNY   90  69  50 MISG      29.98S HAZE
$$

VAZ020-022-025-037-045-042000-
WEST CENTRAL AND SOUTHWEST VIRGINIA

CITY           SKY/WX    TMP DP  RH WIND       PRES   REMARKS
STAUNTON*      PTSUNNY   85  67  53 NW5       30.08F
WAYNESBORO*    FAIR      84  66  55 NE3       30.08F
HOT SPRINGS VA TSTM      67  59  74 E5        30.19F
LYNCHBURG      MOSUNNY   83  69  62 SE3       30.03F
DANVILLE       PTSUNNY   91  68  46 N6        29.99S THUNDER HX  95
SOUTH BOSTON*  FAIR      87  68  52 E8        29.99F
MARTINSVILLE   MOSUNNY   95  62  33 E6        30.03F HX  95
ROANOKE        MOSUNNY   91  62  37 NE6       30.05F
BLACKSBURG     MOSUNNY   86  66  50 CALM      30.13F
DUBLIN*        LGT RAIN  84  67  56 NE6       30.11F
MARION*        MOSUNNY   86  59  40 E6        30.15F
HILLSVILLE*    MOSUNNY   82  64  54 CALM      30.12F
RICHLANDS*     FAIR      83  17   8 N7        30.15F
WISE*          SUNNY     84  57  39 NE9       30.17F
ABINGDON*      MOSUNNY   84  60  42 N3        30.10F
$$

MDZ021>025-VAZ099-100-042000-
SOUTHERN MARYLAND AND THE DELMARVA PENINSULA

CITY           SKY/WX    TMP DP  RH WIND       PRES   REMARKS
PATUXENT RIVER MOSUNNY   89  70  53 VRB6      30.00F
BAY BRIDGE APT   N/A     84  72  65 N6        30.01F
LEONARDTOWN    NOT AVBL
DOVER          SUNNY     87  69  55 E14       30.03R
GEORGETOWN     MOSUNNY   87  63  44 E12       30.03S
EASTON         MOSUNNY   93  66  40 E9        30.04F HX  96
CAMBRIDGE      MOSUNNY   91  68  46 E8        30.00F HX  95
SALISBURY      MOSUNNY   89  66  46 NE12      30.01F
OCEAN CITY     MOSUNNY   84  73  69 E10       30.02F
WALLOPS ISLAND MOSUNNY   84  73  69 E14       30.02S
ACCOMACK*      MOSUNNY  N/A N/A N/A E8        30.00S
$$

NCZ012>017-030>032-042000-
NORTH CENTRAL AND EASTERN NORTH CAROLINA

CITY           SKY/WX    TMP DP  RH WIND       PRES   REMARKS
ROANOKE RAPIDS FAIR      86  72  62 E3        29.97S
RALEIGH        PTSUNNY   85  68  56 NE16G29   29.99S THUNDER
ELIZABETH CITY LGT RAIN  87  68  52 NE15      29.97S
AHOSKIE*       MOSUNNY   85  75  73 CALM      29.96F
EDENTON*       MOSUNNY   88  70  54 E5        29.96F
CURRITUCK*     MOSUNNY   85  68  57 NE12G17   29.99S
KILL DEVIL HLS MOSUNNY   87  75  67 NE7       29.96F HX  95
MANTEO         MOSUNNY   83  74  75 NE12      29.97F
CAPE HATTERAS  SUNNY     88  72  58 N7        29.95F
TARBORO*       RAIN      85  73  67 E6        29.98S
GOLDSBORO      SUNNY     92  70  47 E5        29.95F HX  97
WASHINGTON     MOSUNNY   91  70  49 NE8       29.95F HX  96
GREENVILLE     LGT RAIN  86  72  62 E8        30.00R
NEW BERN       SUNNY     91  70  49 NW6       29.97F HX  96
WILMINGTON     SUNNY     90  70  51 E8        29.96F HX  95
$$

VAZ048-042000-
ELSEWHERE

CITY           SKY/WX    TMP DP  RH WIND       PRES   REMARKS
HARRISBURG PA  MOSUNNY   91  68  46 S5        30.02F HX  95
BALTIMORE      PTSUNNY   89  67  47 SE10      30.01F
ANNAPOLIS      MOSUNNY   88  71  57 E8        30.01S
ANDREWS AFB    MOSUNNY   87  69  53 SE10      30.02S
PHILADELPHIA   MOSUNNY   90  69  50 E14       30.04R
HENDERSON NC   MOSUNNY   77  69  76 CALM      30.00F
GREENSBORO     MOSUNNY   92  63  38 E3        30.00F
ROCKY MOUNT    PTSUNNY   91  69  48 NE6       29.97S HX  96
$$

VAZ100-042000-
MARINE

STATION/POSITION TIME  TEMP    WIND        PRES    WAVE   SWELL
                       AIR SEA DIR/SP/G            HT/PER HT/PER
                 (UTC) (F)     (DEG/KT/KT) (MB)    (FT/S) (FT/S)
BRANDYWINE LGT   1800   81 77  110/  8/  9 1017.4F
CAPE MAY NJ      1800   83 81   70/  8/ 12 1016.9S
LEWES DE         1800   79 78   70/ 10/ 12 1017.1S
15NM E FENWICK I 1850   79 80   40/ 10/ 12 1016.8S   2/ 3   2/10
OCEAN-CITY-INLET 1800   81 78   70/  6/  8 1016.1F
GOOSES REEF MD   1900   83 83   10/ 10/ 10 1017.3F
COVE POINT MD    1800   82     340/  4/  6 1017.0F
SOLOMONS ISLAND  1800      83                N/A
BISHOPS HEAD MD  1800   86 84  100/  7/  9 1015.5R
PINEY POINT MD   1805          140/  9/ 10   N/A
POTOMAC MD       1900   83 82  140/  6/  6 1014.8F   0
CAMBRIDGE MD     1800   86 82   70/  6/  8 1015.5F
LEWISETTA VA     1800   82 83  100/  7/  8 1016.0R
RAPPAHANNOCK LGT 1800           60/ 14/ 16 1016.6S
STINGRAY PT      1900   83 82  100/ 12/ 14 1016.0F   1/ 2
YORK RVR RNG VA  1800   83     100/ 13/ 14 1015.4S
YORKTOWN VA      1800   83 81   90/ 12/ 13 1015.7R
JAMESTOWN VA     1900   87 83   90/ 10/ 14   N/A
DOMINION TERM VA 1800   82      80/  9/ 14 1015.7F
KIPTOPEKE VA     1800      81   80/ 11/ 16   N/A
CHES BAY BRIDGE  1836   80 80   40/ 13/ 15 1015.2
CAPE HENRY VA    1800   80      50/ 12/ 13   N/A
CHESAPEAKE LGHT  1800   79      50/ 14/ 15 1016.2F
WILLOUBY STN VA  1800   80      90/ 12/ 13 1016.8F
CAPE HENRY BUOY  1828      81                N/A     2/ 3
1ST LANDING BUOY 1900      81              1015.2F   1/ 3
CAPE CHARLES BUO 1826      80                N/A     2/ 3   2/10
OFFSHORE WE BUOY 1811      80                N/A     2/ 3   2/12
64NM E OF VA BCH 1850   80 80   50/ 12/ 14 1014.7R   2/11   2/11
DUCK PIER NC     1800   80 81   30/ 13/ 14 1014.4S
44100 DUCK FRF   1824      80                N/A     2/11
44056 DUCK FRF   1811      81                N/A     2/ 3
OREGON INLET NC  1800   82 83   20/  9/ 12 1014.7F
HATTERAS NC      1800   84 83  360/  4/  4 1014.5F
DIAMOND SHLS NC  1850   83 85  360/  4/  6 1014.2F   1/11   2/11
CAPE LOOKOUT NC  1900   84     110/  3/  4 1014.1F
$$


USA.gov is the U.S. government's official web portal to all federal, state and local government web resources and services.